THOR ABLESTAR DEB, 658

Orbit data source: Space-Track

THOR ABLESTAR DEB, 658 is space debris in LEO originally from a launch on Thu, 29 Jun 1961 UTC launched from the Air Force Eastern Test Range (AFETR). Debris objects in space refer to the collection of defunct objects orbiting the Earth. Examples of debris include non-operational satellites, rocket bodies, and fragments generated from explosions, collisions, or faulty payload assembly.

Loading next visibility...
Identifier
658, 1961-015HK
Orbit
LEO
Country
Flag of USUS
Related business
Manufacturer
Unknown
Mission
Spacecraft
Bus & Motor
Unknown
Mass
Unknown
Launch date (UTC)
1961-06-29 (65 years ago)
Launch vehicle
Unknown
Launch site
Air Force Eastern Test Range (AFETR)
Object type
Payload
Rocket body
Debris
Shape & HBR
Unknown shape, 0.1 m
Radar Cross Section
Small (<0.1 m²)

Expand to show TLE details & history
Last TLE update: 14 hours ago

TLE from 14 hours ago
0 THOR ABLESTAR DEB
1   658U 61015HK  26035.32685326  .00001448  00000-0  18498-2 0  9992
2   658  65.8645  83.8495 0362102 276.6418  79.3544 13.41652832 41776
Epoch: 2026-02-04T07:50Z
TLE epoch observation values (Epoch: 2026-02-04T07:50:40.121Z)
Latitude
-0°
Longitude
-168.3127°
Altitude
1,064.603 km
Speed
7.34 km/s
True Right ascension
05h 35m 23s
True Declination
0° 00' 00"
Sunlit
Object was in full shadow at epoch
Visualization orbit readout
Latitude
Unknown
Longitude
Unknown
Altitude
Unknown
Speed
Unknown
Apparent Right ascension
Unknown
Apparent Declination
Unknown
Sunlit
N/A
Visualization observer readout
Local Sidereal Time
00:05:18
Azimuth
Unknown
Elevation
Unknown
Doppler factor
Unknown
Orbital elements
Apogee altitude
1,372.509 km
Perigee altitude
830.818 km
Semi-major axis
7,479.8 km
Eccentricity
0.03621
Inclination
65.8645°
RAAN
83.8495°
Arg. of periapsis
276.6418°
True anomaly
83.46321°
Mean anomaly
79.3544°
Eccentric anomaly
81.4058°
Mean motion
3.35512 °/min
Orbital period
107.3 mins
BSTAR
0.0018498

Documentation

Showing up to 5 results
|